Ellsworth AFB, SD

5:27 AM MST on January 19, 2017 (GMT -0700)
Ellsworth Air Force Base

Weather History for KRCA - April, 2014

Change the Weather History Date:

Sunday, April 6, 2014

  Actual Average Record
Temperature  
Mean Temperature 44 °F -  
Max Temperature 55 °F 50 °F 75 °F (2002)
Min Temperature 34 °F 28 °F 8 °F (2007)
Degree Days  
Heating Degree Days 20    
Moisture  
Dew Point 33 °F    
Average Humidity 62    
Maximum Humidity 87    
Minimum Humidity 30    
Precipitation  
Precipitation 0.05 in - - ()
Sea Level Pressure  
Sea Level Pressure 29.87 in    
Wind  
Wind Speed 9 mph (West)    
Max Wind Speed 18 mph    
Max Gust Speed 25 mph    
Visibility 10 miles    
Events Rain    
Averages and records for this station are not official NWS values.
T = Trace of Precipitation, MM = Missing Value Source: NWS Daily Summary

Daily Weather History Graph

Daily Weather History Graph

Search for Another Location

Airport or City:

Trip Planner

Search our weather history database for the weather conditions in past years. The results will help you decide how hot, cold, wet, or windy it might be!

Date:

Astronomy

Apr. 06, 2014 Rise Set
Actual Time 6:24 AM MDT 7:25 PM MDT
Civil Twilight 5:55 AM MDT 7:55 PM MDT
Nautical Twilight 5:19 AM MDT 8:30 PM MDT
Astronomical Twilight 4:42 AM MDT 9:07 PM MDT
Moon 11:20 AM MDT (4/6) 1:30 AM MDT (4/6)
Length of Visible Light 14h 00m
Length of Day
13h 01m
Waxing Crescent, 44% of the Moon is Illuminated
Apr 6
Waxing Crescent
Apr 7
First Quarter
Apr 15
Full
Apr 22
Last Quarter
Apr 29
New

Hourly Weather History & Observations

Time (MDT) Temp. Windchill Dew Point Humidity Pressure Visibility Wind Dir Wind Speed Gust Speed Precip Events Conditions
12:58 AM 34.7 °F 29.6 °F 31.3 °F 87% 29.91 in 10.0 mi SW 5.8 mph - N/A   Clear
1:43 AM 37.4 °F 32.8 °F 32.0 °F 81% 29.89 in 10.0 mi SW 5.8 mph - N/A Rain Light Rain
1:58 AM 39.2 °F - 34.3 °F 83% 29.89 in 10.0 mi Variable 1.2 mph - 0.00 in Rain Light Rain
2:04 AM 41.0 °F - 35.6 °F 81% 29.87 in 10.0 mi SW 2.3 mph - N/A   Mostly Cloudy
2:58 AM 39.2 °F 37.0 °F 34.7 °F 84% 29.88 in 10.0 mi West 3.5 mph - 0.00 in   Overcast
3:42 AM 41.0 °F 36.4 °F 35.6 °F 81% 29.87 in 10.0 mi West 6.9 mph - N/A Rain Light Rain
3:52 AM 41.0 °F 33.5 °F 35.6 °F 81% 29.87 in 10.0 mi WSW 13.8 mph - N/A Rain Light Rain
3:58 AM 41.4 °F 35.7 °F 36.0 °F 81% 29.88 in 10.0 mi WSW 9.2 mph - 0.00 in Rain Light Rain
4:08 AM 42.8 °F 38.0 °F 35.6 °F 76% 29.87 in 10.0 mi WSW 8.1 mph - N/A Rain Light Rain
4:13 AM 42.8 °F 37.5 °F 35.6 °F 76% 29.88 in 10.0 mi SW 9.2 mph - N/A Rain Light Rain
4:24 AM 42.8 °F 35.1 °F 35.6 °F 76% 29.88 in 10.0 mi SSW 16.1 mph - N/A Rain Light Rain
4:29 AM 42.8 °F 35.1 °F 35.6 °F 76% 29.88 in 10.0 mi SW 16.1 mph - N/A Rain Light Rain
4:39 AM 42.8 °F 36.2 °F 37.4 °F 81% 29.88 in 10.0 mi SSW 12.7 mph - N/A Rain Light Rain
4:43 AM 42.8 °F 35.8 °F 37.4 °F 81% 29.88 in 10.0 mi SSW 13.8 mph - N/A Rain Light Rain
4:48 AM 42.8 °F 35.8 °F 37.4 °F 81% 29.88 in 10.0 mi SSW 13.8 mph - N/A Rain Light Rain
4:53 AM 42.8 °F 36.2 °F 35.6 °F 76% 29.88 in 10.0 mi SSW 12.7 mph - N/A Rain Light Rain
4:58 AM 44.1 °F 37.1 °F 36.3 °F 74% 29.88 in 10.0 mi South 15.0 mph - 0.02 in Rain Light Rain
5:08 AM 42.8 °F 35.4 °F 37.4 °F 81% 29.85 in 10.0 mi SSW 15.0 mph - N/A Rain Light Rain
5:10 AM 42.8 °F 36.2 °F 37.4 °F 81% 29.85 in 10.0 mi SSW 12.7 mph - N/A   Overcast
5:58 AM 41.7 °F 36.1 °F 34.5 °F 76% 29.87 in 10.0 mi SSW 9.2 mph - 0.00 in   Mostly Cloudy
6:58 AM 41.2 °F - 34.0 °F 76% 29.88 in 10.0 mi WNW 2.3 mph - N/A   Mostly Cloudy
7:58 AM 44.8 °F - 34.7 °F 68% 29.90 in 10.0 mi WSW 2.3 mph - N/A   Partly Cloudy
8:58 AM 48.6 °F - 34.5 °F 58% 29.90 in 10.0 mi WNW 3.5 mph - N/A   Overcast
9:58 AM 51.3 °F - 33.4 °F 51% 29.91 in 10.0 mi North 5.8 mph - N/A   Scattered Clouds
10:58 AM 54.7 °F - 25.3 °F 32% 29.88 in 10.0 mi North 13.8 mph 20.7 mph N/A   Overcast
11:58 AM 55.6 °F - 24.1 °F 30% 29.86 in 10.0 mi NNW 12.7 mph - N/A   Mostly Cloudy
12:20 PM 55.4 °F - 24.8 °F 31% 29.83 in 10.0 mi NNW 11.5 mph 17.3 mph N/A   Overcast
12:58 PM 53.2 °F - 26.1 °F 35% 29.87 in 10.0 mi NNW 18.4 mph 23.0 mph N/A   Overcast
1:16 PM 50.0 °F - 30.2 °F 47% 29.84 in 10.0 mi North 6.9 mph - N/A Rain Light Rain
1:32 PM 48.2 °F - 32.0 °F 54% 29.84 in 10.0 mi SSE 11.5 mph - N/A   Overcast
1:50 PM 50.0 °F - 32.0 °F 50% 29.84 in 10.0 mi South 10.4 mph - N/A Rain Light Rain
1:58 PM 48.4 °F - 34.3 °F 58% 29.88 in 10.0 mi Variable 6.9 mph - 0.03 in Rain Light Rain
2:05 PM 48.2 °F - 37.4 °F 66% 29.83 in 10.0 mi SSE 11.5 mph - N/A   Mostly Cloudy
2:58 PM 53.2 °F - 34.2 °F 48% 29.84 in 10.0 mi South 4.6 mph - 0.00 in   Mostly Cloudy
3:58 PM 52.9 °F - 30.7 °F 43% 29.84 in 10.0 mi Variable 6.9 mph - N/A   Overcast
4:05 PM 53.6 °F - 32.0 °F 44% 29.82 in 10.0 mi NW 13.8 mph 21.9 mph N/A   Overcast
4:06 PM 53.6 °F - 32.0 °F 44% 29.82 in 10.0 mi NW 15.0 mph 21.9 mph N/A Rain Light Rain
4:11 PM 51.8 °F - 32.0 °F 47% 29.82 in 10.0 mi Variable 5.8 mph 21.9 mph N/A   Light Drizzle
4:21 PM 53.6 °F - 32.0 °F 44% 29.81 in 10.0 mi NW 6.9 mph - N/A Rain Light Rain
4:25 PM 53.6 °F - 32.0 °F 44% 29.82 in 10.0 mi NNW 15.0 mph 17.3 mph N/A   Scattered Clouds
4:58 PM 52.7 °F - 30.9 °F 43% 29.84 in 10.0 mi North 18.4 mph 25.3 mph 0.00 in   Mostly Cloudy
5:58 PM 54.3 °F - 28.8 °F 38% 29.84 in 10.0 mi North 12.7 mph - N/A   Clear
6:58 PM 52.7 °F - 27.5 °F 38% 29.86 in 10.0 mi North 6.9 mph - N/A   Clear
7:58 PM 48.6 °F - 28.4 °F 46% 29.87 in 10.0 mi North 5.8 mph - N/A   Clear
8:58 PM 40.6 °F 36.0 °F 29.3 °F 64% 29.90 in 10.0 mi WSW 6.9 mph - N/A   Partly Cloudy
9:58 PM 41.5 °F 36.4 °F 30.4 °F 65% 29.90 in 10.0 mi West 8.1 mph - N/A   Overcast
10:21 PM 44.6 °F 40.2 °F 32.0 °F 61% 29.89 in 10.0 mi NNW 8.1 mph - N/A Rain Light Rain
10:33 PM 44.6 °F 38.8 °F 32.0 °F 61% 29.89 in 10.0 mi NNW 11.5 mph - N/A   Overcast
10:58 PM 45.5 °F 40.3 °F 31.8 °F 59% 29.91 in 10.0 mi NNW 10.4 mph - 0.00 in   Overcast
11:58 PM 44.6 °F 38.1 °F 32.2 °F 62% 29.93 in 10.0 mi NNW 13.8 mph - N/A   Overcast